Location: Miles
(41.4492°N, 81.6087°W)
Time: 23:24:00
(UTC+00:00)

Courier 1B Rocket - Pass Details

Date: 14 September 2024
Orbit: 920 x 1201 km, 28.2° (Epoch: 09 October)

Event Time Altitude Azimuth Distance (km) Brightness Sun altitude
Rises 03:10:39 0° 255° (WSW) 4,002 8.5 -36.3°
Enters shadow 03:15:07 10° 231° (SW) 3,124 7.6 -36.8°
Reaches altitude 10° 03:15:25 10° 229° (SW) 3,084 - -36.8°
Maximum altitude 03:18:28 13° 205° (SSW) 2,898 - -37.2°
Drops below altitude 10° 03:21:33 10° 182° (S) 3,116 - -37.6°
Sets 03:26:27 0° 156° (SSE) 4,084 - -38.2°
